Regional Weather Roundup
Issued by NWS

Home | Current Version | Previous Version | Text Only | Print | Product List | Glossary On
Versions: 1 2 3 4 5 6 7 8 9 10 11 12 13 14 15 16 17 18 19 20 21 22 23 24 25 26 27 28 29 30 31 32 33 34 35 36 37 38 39 40 41 42 43 44 45 46 47 48 49 50
000
ASUS44 KEWX 251303
RWRTX
SOUTH TEXAS REGIONAL WEATHER ROUNDUP
NATIONAL WEATHER SERVICE AUSTIN/SAN ANTONIO TX
700 AM CST SAT FEB 25 2017

NOTE: "FAIR" INDICATED FEW OR NO CLOUDS BELOW 12,000 FEET WITH NO
SIGNIFICANT WEATHER AND/OR OBSTRUCTIONS TO VISIBILITY.

* - THESE STATIONS ARE NOT NWS OR FAA STATIONS...AND ARE NOT SUBJECT
    TO NWS AND FAA QUALITY CONTROL.

TXZ171-172-183>190-251400-
TEXAS HILL COUNTRY AND EDWARDS PLATEAU

CITY           SKY/WX    TMP DP  RH WIND       PRES   REMARKS
JUNCTION       PTCLDY    38  28  67 E7        30.17R WCI  33
*LLANO         CLEAR     39  30  70 N3        30.21R
BURNET         CLEAR     38  28  67 NE13      30.17R WCI  30
*HORSESHOE BAY CLEAR     40  31  68 CALM      30.18R
*KERRVILLE     CLEAR     40  31  69 NE5       30.14R WCI  37
*FREDERICKSBRG CLEAR     39  28  65 NE5       30.14R WCI  35
*ROCKSPRINGS   PTCLDY    39  30  70 E8        30.12R WCI  34
*BOERNE STAGE  CLEAR     41  28  60 N7        30.15R WCI  36
*CASTROVILLE   CLEAR     46  29  51 NE8       30.14R WCI  42
HONDO          CLEAR     42  31  64 NE8       30.13R WCI  37
*UVALDE        CLEAR     39  32  76 CALM      30.14R
DEL RIO        CLEAR     44  34  67 SE3       30.12R
LAUGHLIN AFB   CLEAR     42  34  72 NE7       30.11R WCI  37
CARRIZO SPRGS  CLEAR     39  34  81 NE3       30.12R
*EAGLE PASS    SUNNY     37  32  81 SE5       30.13R WCI  34
$$

TXZ173-191>194-202-209-217>225-228-251400-
CENTRAL AND SOUTH CENTRAL TEXAS

CITY           SKY/WX    TMP DP  RH WIND       PRES   REMARKS
GEORGETOWN     CLEAR     39  27  60 N8        30.18R WCI  34
AUSTIN/BERGSTM CLEAR     45  29  53 N18G26    30.16R WCI  37
AUSTIN/MABRY   CLEAR     44  30  57 N8G16     30.18R WCI  39
*AUSTIN/EXEC   CLEAR     41  28  60 N15       30.17R WCI  33
*LAGO VISTA    CLEAR     41  30  65 NE15G21   30.15R WCI  33
SAN MARCOS     CLEAR     45  27  49 N21G26    30.15R WCI  36
NEW BRAUNFELS  CLEAR     46  27  47 NE21G30   30.12R WCI  38
RANDOLPH AFB   CLEAR     46  27  48 N12       30.13R WCI  40
PT SAN ANTONIO CLEAR     47  30  51 NE8       30.11R WCI  44
SAN ANTONIO    CLEAR     47  29  49 N9        30.14R WCI  43
STINSON FIELD  CLEAR     49  29  46 NE9       30.12R WCI  45
*PLEASANTON    CLEAR     47  31  53 N10G16    30.13R WCI  43
*LA GRANGE     CLEAR     46  35  65 N7        30.13R WCI  42
*GIDDINGS      CLEAR    N/A N/A N/A N10       30.15R
*GONZALES      CLEAR     45  34  65 N9G16     30.12R WCI  40
$$

TXZ163>164-176>182-195>201-210>213-226-227-235-251400-
SOUTHEAST TEXAS

CITY           SKY/WX    TMP DP  RH WIND       PRES   REMARKS
COLLEGE STN    CLEAR     44  30  57 N12       30.15R WCI  38
*BRYAN         CLEAR     41  29  63 N9        30.17R WCI  35
*CALDWELL      NOT AVBL
*CROCKETT      CLEAR     39  27  60 N6        30.18R WCI  35
*BRENHAM       CLEAR     44  34  66 N8        30.15R WCI  40
HUNTSVILLE     CLEAR     42  29  59 VRB5      30.14R WCI  39
CONROE         CLEAR     45  31  58 N7        30.12R WCI  41
HOUSTON BUSH   CLEAR     47  34  60 N10       30.11R WCI  42
HOUSTON HOBBY  CLEAR     50  33  52 N13       30.08R WCI  45
*HOUSTON SW AP CLEAR     49  35  57 N10       30.09R WCI  45
PEARLAND       CLEAR     53  32  44 N15G24    30.10R
HOUSTON HOOKS  CLEAR     48  31  51 N8        30.11R WCI  44
ELLINGTON FLD  CLEAR     52  34  50 N13       30.09R
SUGAR LAND     CLEAR     49  34  56 N15       30.09R WCI  43
*HOUSTON EXEC  CLEAR     45  36  70 N12       30.12R WCI  39
*CLEVELAND MUN CLEAR     46  33  62 N6        30.13R WCI  42
*WHARTON       CLEAR     47  35  64 N10G17    30.10R WCI  42
*COLUMBUS      FAIR      47  32  56 N8        30.12R WCI  43
*EAGLE LAKE    SUNNY     48  38  68 N13       30.10R WCI  43
$$

TXZ214>216-236>238-251400-
THE UPPER TEXAS COAST

CITY           SKY/WX    TMP DP  RH WIND       PRES   REMARKS
*ORANGE        CLEAR     47  38  73 N5        30.11R WCI  45
PORT ARTHUR    CLEAR     49  35  58 N13       30.09R WCI  44
GALVESTON      CLEAR     57  40  52 N23G31    30.06R
ANGLETON       CLEAR     48  38  68 N8        30.08R WCI  44
*BAY CITY      CLEAR     46  40  80 N5        30.07R WCI  44
PALACIOS       CLEAR     46  40  79 N8        30.08R WCI  42
$$

TXZ229>234-239>247-251400-
TEXAS COASTAL BEND AND RIO GRANDE PLAINS

CITY           SKY/WX    TMP DP  RH WIND       PRES   REMARKS
VICTORIA       CLEAR     47  39  74 N7        30.11R WCI  44
*BEEVILLE      CLEAR     49  38  66 NE13      30.08R WCI  44
ROCKPORT       CLEAR     52  40  63 N14       30.07R
*PORT ARANSAS  CLEAR     55  43  63 NE14G22   30.06R
*PORT LAVACA   CLEAR     48  42  79 N8        30.09R WCI  45
*INGLESIDE     CLEAR     55  42  63 NE15      30.06R
CORPUS CHRISTI CLEAR     54  39  57 NE17      30.06R
CORPUS NAS     CLEAR     56  49  77 NE16      30.06R
*ROBSTOWN      CLEAR     52  41  66 CALM      30.07R
ALICE          CLEAR     48  37  65 N9        30.07R WCI  44
KINGSVILLE NAS CLEAR     50  43  77 N9        30.07R WCI  46
COTULLA        CLEAR     50  32  50 NE6       30.12R WCI  48
*FAITH RANCH   PTCLDY    50  34  53 NE9G16    30.12R WCI  46
LAREDO         CLEAR     51  38  60 NE8       30.09R
$$

TXZ248>255-251400-
DEEP SOUTH TEXAS

CITY           SKY/WX    TMP DP  RH WIND       PRES   REMARKS
BROWNSVILLE    CLEAR     63  56  78 N3        30.01R
PORT ISABEL    CLEAR     66  56  70 NE13      30.00R
*SOUTH PADRE   NOT AVBL
HARLINGEN      CLEAR     56  53  90 N7        30.01R
*HEBBRONVILLE  CLEAR     50  36  58 NE8       30.08R WCI  46
MCALLEN        CLEAR     59  50  72 N7        30.05R
*WESLACO       CLOUDY    55  50  85 N6        30.03R
FALFURRIAS     CLEAR     50  41  71 N5        30.06R WCI  48
EDINBURG       CLEAR     51  46  83 N7        30.05R
*ZAPATA        CLEAR     53  37  54 CALM      30.08R
$$

TXZ213>215-236>238-242>244-246-247-251-254-255-251400-
CMAN STATIONS

STATION/POSITION TIME  TEMP    WIND        PRES    WAVE
                       AIR SEA DIR/SP/G            HT/PER
                 (UTC) (F)     (DEG/KT/KT) (MB)    (FT/S)
SABINE PASS      1224   54 68   10/ 17/ 21 1019.5
SEA RIM ST PARK  1200   52      10/ 10/ 12 1018.1
NORTH JETTY/GLS  1230   58 65   10/ 20/ 23   N/A
EAGLE POINT      1230   54 66   20/ 13/ 19 1018.4
MORGANS POINT    1224   52 66   20/ 12/ 17 1018.6
MISSION/ARANSAS  1200   56                 1018.0
PORT O`CONNOR    1230   56     360/ 17/ 19 1017.8
PORT ARANSAS     1200   58 67   10/ 18/ 21 1016.8
MALAQUITE BEACH  1230   59 68   10/ 14/ 18 1017.9
BAFFIN BAY       1230   60 66   10/ 17/ 21 1017.1
PORT ISABEL      1230   68 71   10/  3/  6 1015.2
$$

GMZ080-GMZ150>470-251400-
OFFSHORE BUOY REPORTS

STATION/POSITION TIME  TEMP    WIND        PRES    WAVE
                       AIR SEA DIR/SP/G            HT/PER
                 (UTC) (F)     (DEG/KT/KT) (MB)    (FT/S)
20 E GALVESTON   1150   58 65   10/ 19/ 23 1016.8    3/ 4
90 E PT ARANSAS  1150   64 69   30/ 25/ 29 1014.5    7/ 7
35 NE PT MANSFLD 1150   68      50/ 19/ 23 1014.6    7/ 7
200 E PT ISABEL  1150   72 74   40/ 17/ 21 1012.6    3/ 6
$$



USA.gov is the U.S. government's official web portal to all federal, state and local government web resources and services.